SCP
0 0 0 0 0 0 0 0 0 0 0 0 0 0 0 0 0 0 0 0 0 0 0 0 0 0 0 0 0 0 0 0 0 0 0 0 0 0 0 0 0 0 0
0 0 0 0 0 0 0 0 0 0 0 0 0 0 0 0 0 0 0 0 0 0 0 0 0 0 0 0 0 0 0 0 0 -0 -0 0 0 0 0 0 0 0 0
0 0 0 0 0 0 0 0 0 0 0 0 0 0 0 0 0 0 0 0 0 0 0 0 0 0 0 0 0 0 0 0 0 -0 -0 -0 0 0 0 0 0 0 0
0 0 0 0 0 0 0 0 0 0 0 0 0 0 0 0 0 0 0 0 0 0 0 0 0 0 0 0 0 0 0 0 0 0 0 0 0 0 0 0 0 0 0
0 0 0 0 0 0 0 0 0 0 0 0 0 0 0 0 0 0 0 0 0 0 0 0 0 0 0 0 0 0 0 0 0 0 0 0 0 0 0 0 0 0 0
0 0 0 0 0 0 0 0 0 0 0 0 0 0 0 0 0 0 0 0 0 0 0 0 0 0 0 0 0 0 0 0 0 0 0 0 0 0 0 0 0 0 0
0 0 0 0 0 0 0 0 0 0 0 0 0 0 0 0 0 0 0 0 0 0 0 0 0 0 0 0 0 0 0 0 0 0 0 0 0 0 0 0 0 0 0
0 0 0 0 0 0 0 0 0 0 0 0 0 0 0 0 0 0 0 0 0 0 0 0 0 0 0 0 0 0 0 0 0 0 0 0 0 0 0 0 0 0 0
0 0 0 0 0 0 0 0 0 0 0 0 0 0 0 0 0 0 0 0 0 0 0 0 0 0 0 0 0 0 0 0 0 0 0 0 0 0 0 0 0 0 0
0 0 0 0 0 0 0 0 0 0 0 0 0 0 0 0 0 0 0 0 0 0 0 0 0 0 0 0 0 0 0 0 0 0 0 0 0 0 0 0 0 0 0
0 0 0 0 0 0 0 0 0 0 0 0 0 0 0 0 0 0 0 0 0 0 0 0 0 0 0 0 0 0 0 0 0 0 0 0 0 0 0 0 0 0 0
0 0 0 0 0 0 1 1 1 1 1 0 0 0 0 0 0 0 0 0 0 0 0 0 0 0 0 0 0 0 0 0 0 0 0 0 0 0 0 0 0 0 0
0 0 0 0 0 0 1 1 1 1 1 1 0 0 0 0 0 0 0 0 0 0 0 0 0 0 0 0 0 0 0 0 0 0 0 0 0 0 0 0 0 0 0
0 0 0 0 0 0 1 1 1 1 1 1 0 0 0 0 0 0 0 0 0 0 0 0 0 0 0 0 0 0 0 0 0 0 0 0 0 0 0 0 0 0 0
0 0 0 0 0 0 0 1 1 1 1 1 1 1 1 1 0 0 0 0 0 0 0 0 0 0 0 0 0 0 0 0 0 0 0 0 0 0 0 0 0 0 0
0 0 0 0 0 0 0 0 0 1 1 1 1 1 1 1 1 0 0 0 0 0 0 0 0 0 0 0 0 0 0 0 0 0 0 0 0 0 0 0 0 0 0
0 0 0 0 0 0 0 0 0 1 1 1 1 1 1 1 1 1 0 0 0 0 0 0 0 0 0 0 0 0 0 0 0 0 0 0 0 0 0 0 0 0 0
0 0 0 0 0 0 0 0 0 1 1 1 1 1 1 1 1 1 1 1 0 0 0 0 0 0 0 0 0 0 0 0 0 0 0 0 0 0 0 0 0 0 0
0 0 0 0 0 0 0 0 0 0 1 1 1 1 1 1 1 1 1 1 1 0 0 0 0 0 0 0 0 0 0 0 0 0 0 0 0 0 0 0 0 0 0
0 0 0 0 0 0 0 0 0 0 1 1 1 1 1 1 1 1 1 1 1 1 0 0 0 0 0 0 0 0 0 0 0 0 0 0 0 0 0 0 0 0 0
0 0 0 0 0 0 0 0 0 0 0 1 1 1 1 1 1 1 1 1 1 1 1 0 0 0 0 0 0 0 0 0 0 0 0 0 0 0 0 0 0 0 0
0 0 0 0 0 0 0 0 0 0 0 0 1 1 1 1 1 1 1 1 1 1 1 0 0 0 0 0 0 0 0 0 0 0 0 0 0 0 0 0 0 0 0
0 0 0 0 0 0 0 0 0 0 0 0 0 1 1 1 1 1 1 1 1 1 1 0 0 0 0 0 0 0 0 0 0 0 0 0 0 0 0 0 0 0 0
0 0 0 0 0 0 0 0 0 0 0 0 0 1 1 1 1 1 1 1 1 1 1 0 0 0 0 0 0 0 0 0 0 0 0 0 0 0 0 0 0 0 0
0 0 0 0 0 0 0 0 0 0 0 0 0 0 1 1 1 1 1 1 1 1 1 1 0 0 0 0 0 0 0 0 0 0 0 0 0 0 0 0 0 0 0
0 0 0 0 0 0 0 0 0 0 0 0 0 0 1 1 1 1 1 1 1 1 1 1 0 0 0 0 0 0 0 0 0 0 0 0 0 0 0 0 0 0 0
Wind_Speed
12 12 12 11 11 11 10 10 9 8 8 7 6 5 5 4 4 4 4 4 5 5 5 5 5 6 7 7 7 7 7 7 6 7 7 8 8 8 8 7 5 6 9
15 14 12 12 11 11 10 10 9 9 8 7 6 5 4 4 4 3 4 4 4 4 4 4 5 6 6 5 6 6 6 5 4 3 4 7 8 8 9 10 9 5 8
16 14 12 12 11 11 10 9 9 8 8 7 6 6 5 4 4 3 4 4 4 4 4 4 4 5 5 5 5 5 5 4 4 4 2 2 6 9 8 8 8 8 7
15 13 12 12 11 10 10 9 8 8 8 7 6 6 5 5 4 4 4 4 4 4 4 4 4 4 4 4 4 4 3 3 5 6 2 4 6 9 8 8 8 8 7
13 12 13 12 11 10 9 9 8 8 7 7 6 6 5 5 4 4 3 3 4 4 4 4 4 4 4 4 4 3 2 3 6 5 4 7 6 8 8 8 8 7 7
13 13 13 11 11 10 9 8 8 7 7 6 6 5 5 4 4 3 3 3 3 4 4 4 3 3 3 3 3 2 2 4 7 2 4 6 5 7 8 8 7 7 7
13 14 13 12 10 9 9 8 8 7 7 6 6 5 5 4 4 4 3 3 3 3 4 3 3 3 2 2 1 1 3 5 5 1 5 6 5 7 7 8 8 7 7
13 14 13 13 11 10 10 9 8 8 7 7 6 6 5 5 4 4 4 4 3 3 3 3 2 2 2 1 1 1 3 7 4 1 6 6 7 7 7 7 7 7 7
10 12 12 12 11 11 11 11 10 9 8 8 7 7 6 6 6 6 5 5 4 4 3 3 2 2 2 2 2 2 4 6 5 1 6 5 7 7 6 6 6 7 7
5 7 10 11 12 11 11 13 13 11 10 9 8 8 8 7 7 8 8 7 6 5 4 4 3 3 3 4 4 4 6 6 5 1 5 6 7 7 6 6 6 6 7
6 4 3 2 4 7 10 12 13 12 11 10 8 10 8 6 7 8 10 10 9 7 6 6 5 5 5 6 7 7 6 4 4 3 5 8 8 6 6 5 5 6 6
9 8 7 5 3 0 3 6 7 7 7 7 6 8 7 7 6 8 11 13 12 9 8 8 8 8 7 5 7 8 4 6 3 4 6 10 7 6 6 5 5 6 6
8 8 8 8 7 5 1 2 3 3 4 6 7 7 7 6 4 4 5 7 7 8 6 7 7 6 7 6 5 6 7 4 2 4 7 10 7 6 6 5 6 6 6
8 8 8 8 7 7 5 2 1 2 3 3 5 7 6 3 3 3 4 7 6 5 6 6 6 9 9 8 8 8 6 3 3 5 6 10 8 6 6 6 6 6 6
5 5 6 6 6 5 5 3 3 1 1 3 3 4 5 4 4 3 3 4 5 5 6 4 6 7 6 5 4 5 5 5 5 6 6 10 9 7 6 6 7 6 6
6 5 4 5 4 4 3 3 3 3 2 2 2 3 4 3 4 3 3 3 3 3 5 5 6 4 3 2 2 2 2 3 4 8 7 7 9 8 6 7 7 7 7
7 6 4 4 3 4 4 4 3 2 2 2 2 3 4 3 4 4 3 3 3 3 4 4 5 4 3 3 3 3 2 2 3 7 9 7 6 8 8 7 7 7 7
7 6 5 5 5 4 4 4 3 3 3 3 3 3 4 4 4 3 3 2 2 2 2 2 2 2 2 2 3 3 3 3 3 4 7 8 7 7 7 9 8 7 7
8 7 6 5 5 4 4 4 4 3 3 3 3 3 4 5 5 3 3 3 2 2 1 2 2 2 2 2 3 3 3 4 4 4 5 7 8 8 7 9 10 9 8
9 9 7 6 5 4 4 3 3 4 3 3 3 4 5 4 5 4 3 4 4 2 2 1 1 1 1 1 3 3 3 3 3 4 4 3 7 9 10 9 7 7 9
10 10 9 8 6 4 2 3 3 4 3 3 3 4 4 4 4 4 4 4 4 4 4 3 2 2 2 1 1 2 1 3 4 4 3 2 4 6 10 10 8 7 6
11 10 10 8 8 7 3 3 3 4 4 4 3 4 5 5 4 4 4 4 4 4 5 4 3 2 2 2 1 1 1 2 2 3 3 3 3 4 7 9 8 9 8
11 11 10 9 8 7 6 4 4 3 3 3 3 4 4 4 5 5 5 5 5 5 5 6 5 5 3 2 2 2 3 3 2 2 3 3 3 2 3 4 6 8 10
12 11 11 10 9 8 7 5 5 4 4 4 4 4 4 4 5 5 5 6 5 5 6 6 6 5 5 4 3 3 3 2 2 1 2 2 2 3 3 3 3 4 6
11 10 10 10 9 8 7 5 5 4 4 4 4 4 4 3 4 4 5 5 6 5 6 6 6 6 5 5 4 3 3 2 2 2 2 2 1 1 0 1 1 1 3
10 9 9 9 8 8 7 6 5 5 5 5 5 4 3 2 2 2 3 4 4 4 6 6 7 7 6 7 5 4 4 3 3 3 2 2 1 2 1 1 0 1 2
Wind_Direction
122 121 127 118 113 110 110 117 123 129 130 129 127 125 121 115 103 90 81 72 65 62 58 55 56 60 61 62 58 57 53 50 52 63 71 71 66 58 50 43 60 80 85
121 123 128 123 118 115 113 115 119 124 127 129 129 128 125 122 116 103 94 85 75 68 63 59 61 64 65 65 65 61 55 47 38 48 80 81 72 60 56 56 64 82 86
119 126 131 128 124 121 119 118 119 122 125 126 126 125 126 128 124 111 101 94 88 80 73 67 69 69 69 67 66 61 50 25 354 335 320 108 85 64 60 62 71 81 83
124 137 132 133 130 129 127 126 125 124 125 126 127 128 127 125 122 114 105 100 96 92 87 82 75 75 76 72 68 62 42 346 322 321 34 86 78 70 64 63 71 81 83
125 125 126 139 136 136 135 134 133 133 133 132 131 132 133 132 128 124 116 109 102 99 96 94 90 86 87 83 75 63 19 314 314 329 71 82 73 71 69 66 69 77 84
122 120 132 142 144 146 145 146 147 147 148 149 148 147 143 141 140 138 136 132 120 111 103 99 100 98 96 92 82 55 327 307 308 339 87 92 85 75 73 72 72 75 82
129 129 140 148 152 156 158 161 164 165 166 167 166 164 161 161 161 156 154 148 140 128 114 108 107 110 108 102 88 14 311 308 284 214 103 94 92 85 78 75 76 78 82
132 136 142 156 162 168 172 175 177 179 182 181 178 176 178 180 178 175 169 157 150 137 127 121 123 131 133 140 158 288 302 305 301 91 109 102 105 95 85 79 79 81 83
134 139 151 163 172 179 183 185 186 188 191 191 188 188 189 191 190 188 182 176 169 158 152 150 154 165 178 205 234 262 283 294 297 274 117 110 112 102 93 86 83 84 86
113 142 160 169 175 180 186 192 191 193 196 200 199 198 198 200 202 201 195 188 182 180 180 180 187 197 208 223 235 249 267 289 271 111 105 116 115 111 105 99 95 91 91
33 30 66 148 168 184 183 187 191 195 198 201 205 208 205 210 206 203 209 183 185 192 197 199 204 213 223 227 231 237 251 249 235 115 107 121 123 124 123 120 112 104 100
18 11 18 17 29 54 201 169 185 189 188 201 206 198 205 222 215 202 185 180 187 196 204 209 214 221 230 227 223 228 239 238 204 132 123 130 130 135 138 136 131 122 115
14 14 9 8 3 1 358 155 185 170 179 204 218 202 208 224 208 179 165 174 189 199 207 208 214 224 225 223 199 205 225 229 160 121 133 134 136 143 148 149 143 137 130
15 5 358 359 0 354 350 354 222 179 180 201 216 217 205 212 224 206 186 178 185 194 206 197 208 218 225 223 200 206 201 192 141 119 140 141 142 150 156 157 152 148 143
18 3 352 349 350 348 348 335 320 303 216 212 203 225 204 195 212 225 220 188 189 190 189 206 221 227 222 227 214 207 185 181 159 137 142 152 150 154 161 162 158 156 156
4 354 342 341 339 332 328 325 324 328 318 287 245 240 228 200 205 215 230 214 201 200 181 190 222 242 229 227 236 229 190 177 159 141 148 156 160 160 165 170 166 161 161
349 341 339 322 334 329 318 308 305 289 279 272 253 257 260 223 212 220 222 223 212 215 209 193 222 226 213 209 208 231 210 194 176 157 152 160 165 170 170 169 169 169 170
343 335 331 332 337 328 321 304 286 276 267 256 243 232 244 241 218 212 221 228 237 233 225 189 216 214 221 210 206 207 204 178 210 175 161 165 167 170 176 175 173 176 178
337 332 333 339 329 322 309 291 283 273 257 250 248 237 241 247 238 213 211 209 230 252 240 221 194 202 223 224 228 210 202 177 196 200 195 180 165 162 167 176 176 178 182
342 338 335 331 321 315 309 307 302 285 265 243 238 236 236 240 240 226 208 202 208 216 230 250 202 207 223 232 246 227 202 182 186 196 221 183 165 170 163 166 171 185 189
346 343 334 328 325 319 314 310 304 297 292 277 255 247 240 238 233 223 214 204 205 203 204 216 216 214 224 249 269 289 259 210 203 193 205 198 190 175 158 169 177 174 183
346 342 332 336 334 330 317 302 285 287 283 275 269 258 240 236 233 227 212 205 203 204 205 203 199 202 207 205 187 212 275 300 272 207 186 196 221 181 170 177 180 173 174
347 341 335 335 331 329 327 313 304 298 290 284 277 270 254 239 230 224 215 207 203 198 201 200 194 189 198 208 199 175 173 210 256 277 217 200 209 191 185 194 190 179 173
349 342 339 337 335 333 331 324 319 304 298 296 294 283 273 250 233 220 213 211 209 200 198 203 198 190 186 199 214 215 206 173 165 258 280 232 214 204 196 199 198 179 166
352 348 343 343 342 339 334 328 323 315 306 303 305 301 293 267 245 225 214 211 212 208 201 200 195 195 194 195 196 195 214 219 186 175 242 282 304 262 241 194 174 143 139
355 352 349 350 351 348 342 340 335 327 324 324 321 322 314 301 278 253 226 216 213 207 205 205 201 201 201 201 198 193 185 188 190 183 198 211 235 272 313 347 16 133 131